[[{"header":{"parameterUnit":"m.s-1","parameterCategory":1,"la1":30.2991,"la2":30.254,"lo1":-89.0895,"lo2":-89.0444,"dy":0.0017,"dx":0.0017,"nx":28,"ny":28,"refTime":"2025-06-11T03:00:00:Z","depth":0,"parameterNumber":2,"parameterNumberName":"U-component_of_WINDS"},"data":[0,0,0,0,0,0,0,0,0,0,0,0,0,0,0,0,0,0,0,0,0,0,0,0,0,0,0,0,0,0,0,0,0,0,0,0,0,0,0,0,0,0,0,0,0,0,0,0,0,0,0,0,0,0,0,0,0,0,-0.7041,-0.7041,0,-0.7032,-0.7032,-0.7032,-0.7029,-0.7029,-0.7029,-0.7029,-0.7019,-0.7019,-0.7018,0,0,0,0,0,0,0,0,0,0,0,0,0,-0.7055,-0.7055,-0.7041,-0.7041,-0.7041,-0.7032,-0.7032,-0.7032,-0.7029,-0.7029,-0.7029,-0.7029,-0.7019,-0.7019,-0.7018,0,0,0,0,0,0,0,0,0,0,0,0,0,-0.7048,-0.7055,-0.7041,-0.7039,-0.7038,-0.7032,-0.7032,-0.7032,-0.7029,-0.7029,-0.7029,-0.7029,-0.7019,-0.7019,-0.7018,-0.7014,0,0,-0.7017,-0.7017,0,0,0,0,0,0,0,0,-0.7048,-0.7047,-0.7039,-0.7039,-0.7038,-0.7032,-0.7033,-0.7026,-0.7029,-0.7032,-0.7029,-0.7029,-0.7023,-0.7022,-0.702,-0.7013,-0.7013,-0.7017,-0.7017,-0.7016,-0.7016,0,0,0,0,0,0,0,-0.7049,-0.7047,-0.7037,-0.7039,-0.7038,-0.7037,-0.7036,-0.7032,-0.7027,-0.7032,-0.7032,-0.7031,-0.7023,-0.7021,-0.702,-0.7013,-0.7017,-0.7016,-0.7016,-0.7016,-0.7,-0.7,0,0,0,0,0,0,-0.705,-0.7048,-0.7038,-0.7037,-0.7043,-0.7037,-0.7036,-0.7034,-0.7028,-0.7027,-0.7031,-0.7031,-0.7022,-0.7021,-0.702,-0.7013,-0.7016,-0.7016,-0.7016,-0.7,-0.7,-0.7,0,0,0,0,0,0,-0.705,-0.7049,-0.7038,-0.7042,-0.7041,-0.7037,-0.7034,-0.7034,-0.7032,-0.7027,-0.7026,-0.703,-0.7022,-0.702,-0.7015,-0.7013,-0.7016,-0.7015,-0.7,-0.7,-0.7,-0.7001,0,0,0,0,0,0,-0.705,-0.7049,-0.7048,-0.7042,-0.7041,-0.7034,-0.7034,-0.7033,-0.7031,-0.7031,-0.7025,-0.7024,-0.7022,-0.7016,-0.7015,-0.7012,-0.7015,-0.7001,-0.7,-0.7,-0.7001,-0.7001,-0.7001,0,0,0,0,0,-0.7051,-0.7048,-0.7048,-0.7046,-0.7039,-0.7034,-0.7033,-0.703,-0.7031,-0.7029,-0.7026,-0.7025,-0.7013,-0.7015,-0.7014,-0.7012,-0.7001,-0.7,-0.7,-0.7001,-0.7001,-0.7001,0,0,0,0,0,0,-0.7053,-0.7048,-0.7047,-0.7042,-0.7039,-0.7034,-0.7031,-0.703,-0.7026,-0.7026,-0.7022,-0.7021,-0.7016,-0.7013,-0.7015,-0.7006,-0.7007,-0.7006,-0.7008,-0.7008,-0.7008,-0.7008,-0.7014,0,0,0,0,0,-0.7053,-0.705,-0.7045,-0.7042,-0.704,-0.7036,-0.7034,-0.7032,-0.7028,-0.7026,-0.7022,-0.7018,-0.7013,-0.7011,-0.7006,-0.7001,-0.6999,-0.6998,-0.6998,-0.6998,-0.6997,-0.6993,-0.6992,-0.6999,-0.6999,-0.6999,0,0,-0.7053,-0.705,-0.7048,-0.7042,-0.7039,-0.7035,-0.7035,-0.7031,-0.7028,-0.7025,-0.702,-0.7017,-0.7012,-0.7006,-0.7003,-0.7004,-0.6995,-0.6997,-0.6997,-0.6997,-0.6993,-0.6992,-0.6991,-0.6999,-0.6999,-0.6999,0,0,-0.7051,-0.7048,-0.7045,-0.7042,-0.7037,-0.7034,-0.7033,-0.7028,-0.7026,-0.7021,-0.7019,-0.7014,-0.7007,-0.7003,-0.7,-0.6995,-0.6994,-0.6994,-0.6993,-0.6989,-0.6988,-0.6988,-0.6985,-0.6984,-0.6994,-0.6994,-0.6994,0,-0.7052,-0.7046,-0.7043,-0.7039,-0.7036,-0.7034,-0.703,-0.7027,-0.7021,-0.7019,-0.7019,-0.7009,-0.7005,-0.6998,-0.6997,-0.6995,-0.6993,-0.6995,-0.6988,-0.6988,-0.6987,-0.6985,-0.6984,-0.6994,-0.6994,-0.6994,-0.6994,0,-0.7047,-0.7043,-0.704,-0.7035,-0.7031,-0.7027,-0.7023,-0.702,-0.7018,-0.7015,-0.7009,-0.7005,-0.6999,-0.6997,-0.6995,-0.6989,-0.6989,-0.6989,-0.699,-0.6987,-0.6984,-0.6983,-0.6994,-0.6994,-0.6994,-0.6994,0,0,-0.7046,-0.7038,-0.7038,-0.7034,-0.7029,-0.7025,-0.7021,-0.7015,-0.7012,-0.7008,-0.7003,-0.6996,-0.6996,-0.6992,-0.699,-0.6986,-0.6982,-0.6986,-0.6986,-0.6985,-0.6974,-0.6974,-0.6973,-0.6981,-0.6981,-0.6981,-0.6974,0,-0.7043,-0.7035,-0.7032,-0.7026,-0.7021,-0.7019,-0.7014,-0.701,-0.7007,-0.7002,-0.6998,-0.6993,-0.6993,-0.6991,-0.6987,-0.6983,-0.6979,-0.6984,-0.6976,-0.6976,-0.6977,-0.6972,-0.6972,-0.6966,-0.6973,-0.6973,-0.6973,0,-0.7039,-0.7034,-0.7027,-0.7021,-0.7019,-0.7015,-0.7009,-0.7005,-0.7,-0.6997,-0.6993,-0.6991,-0.6985,-0.6986,-0.6977,-0.698,-0.6977,-0.6974,-0.6974,-0.6972,-0.6974,-0.697,-0.6964,-0.6963,-0.6971,-0.6971,-0.6972,0,-0.7038,-0.703,-0.7025,-0.7022,-0.7015,-0.7012,-0.7009,-0.7004,-0.7,-0.6995,-0.6992,-0.6986,-0.6983,-0.6978,-0.6973,-0.6974,-0.6964,-0.6965,-0.6962,-0.6962,-0.696,-0.696,-0.6953,-0.6958,-0.6958,-0.6958,-0.6958,0,-0.7035,-0.7031,-0.7025,-0.7021,-0.7016,-0.7012,-0.7006,-0.7003,-0.6998,-0.6993,-0.699,-0.6986,-0.698,-0.6975,-0.6971,-0.6964,-0.6963,-0.696,-0.6959,-0.696,-0.696,-0.6957,-0.6958,-0.6958,-0.6958,-0.6958,-0.6958,0,-0.7034,-0.703,-0.7023,-0.7017,-0.7015,-0.7011,-0.7005,-0.7001,-0.6998,-0.6991,-0.699,-0.6984,-0.6977,-0.6972,-0.6963,-0.6961,-0.6953,-0.6952,-0.6955,-0.6954,-0.6951,-0.6951,-0.6941,-0.6939,-0.6946,-0.6946,-0.6946,0,-0.7032,-0.7028,-0.7021,-0.7018,-0.7015,-0.7009,-0.7006,-0.7001,-0.6997,-0.699,-0.6987,-0.698,-0.6974,-0.6963,-0.6957,-0.695,-0.6949,-0.6946,-0.6948,-0.6949,-0.6948,-0.6948,-0.6947,-0.6946,-0.6946,-0.6946,-0.6946,0,-0.7029,-0.7026,-0.7021,-0.7015,-0.7011,-0.7006,-0.7001,-0.6998,-0.6992,-0.6988,-0.6981,-0.6976,-0.6967,-0.696,-0.6952,-0.6948,-0.6945,-0.6945,-0.6944,-0.6944,-0.6946,-0.6944,-0.6953,-0.6945,-0.6945,-0.6945,-0.6945,-0.6945,-0.7027,-0.7023,-0.7017,-0.7011,-0.7007,-0.7002,-0.6997,-0.6993,-0.6987,-0.6979,-0.6977,-0.6969,-0.6963,-0.6952,-0.6947,-0.6941,-0.6941,-0.6939,-0.6939,-0.6938,-0.6938,-0.6947,-0.6939,-0.6939,-0.6939,-0.6939,-0.6939,0,-0.7023,-0.7018,-0.7013,-0.7006,-0.7001,-0.6999,-0.6993,-0.6989,-0.6982,-0.6976,-0.697,-0.6962,-0.6954,-0.6948,-0.694,-0.6936,-0.6934,-0.6934,-0.6934,-0.6932,-0.6939,-0.694,-0.6935,-0.6935,-0.6935,-0.6935,-0.6935,-0.6935,-0.702,-0.7013,-0.701,-0.7001,-0.6997,-0.699,-0.6986,-0.6981,-0.6976,-0.6967,-0.6961,-0.6956,-0.695,-0.6941,-0.6934,-0.6932,-0.6929,-0.6928,-0.6926,-0.6932,-0.6932,-0.6933,-0.6934,-0.6928,-0.6928,-0.692,-0.692,-0.692]},{"header":{"parameterUnit":"m.s-1","parameterCategory":1,"la1":30.2991,"la2":30.254,"lo1":-89.0895,"lo2":-89.0444,"dy":0.0017,"dx":0.0017,"nx":28,"ny":28,"refTime":"2025-06-11T03:00:00:Z","depth":0,"parameterNumber":3,"parameterNumberName":"V-component_of_WINDS"},"data":[0,0,0,0,0,0,0,0,0,0,0,0,0,0,0,0,0,0,0,0,0,0,0,0,0,0,0,0,0,0,0,0,0,0,0,0,0,0,0,0,0,0,0,0,0,0,0,0,0,0,0,0,0,0,0,0,0,0,-0.8856,-0.8855,0,-0.8826,-0.8826,-0.8826,-0.8842,-0.8843,-0.8844,-0.8845,-0.8814,-0.8812,-0.8811,0,0,0,0,0,0,0,0,0,0,0,0,0,-0.8925,-0.8923,-0.8856,-0.8855,-0.8855,-0.8826,-0.8826,-0.8826,-0.8842,-0.8843,-0.8844,-0.8845,-0.8814,-0.8813,-0.8811,0,0,0,0,0,0,0,0,0,0,0,0,0,-0.8895,-0.8923,-0.8856,-0.886,-0.886,-0.8827,-0.8826,-0.8826,-0.8842,-0.8843,-0.8844,-0.8846,-0.8815,-0.8813,-0.881,-0.8771,0,0,-0.8803,-0.8802,0,0,0,0,0,0,0,0,-0.8897,-0.8893,-0.886,-0.886,-0.886,-0.8839,-0.8839,-0.8807,-0.8842,-0.8849,-0.8845,-0.8846,-0.8821,-0.8819,-0.881,-0.877,-0.8768,-0.8803,-0.8802,-0.88,-0.88,0,0,0,0,0,0,0,-0.8899,-0.8894,-0.8844,-0.8859,-0.8859,-0.8863,-0.886,-0.8833,-0.8828,-0.8848,-0.8849,-0.8846,-0.8822,-0.8813,-0.881,-0.8768,-0.8803,-0.8801,-0.8799,-0.8799,-0.8692,-0.8691,0,0,0,0,0,0,-0.8901,-0.8895,-0.8845,-0.8843,-0.8882,-0.886,-0.8857,-0.8845,-0.8829,-0.8828,-0.8845,-0.8847,-0.8816,-0.8812,-0.8809,-0.876,-0.8801,-0.8798,-0.8797,-0.8693,-0.8692,-0.869,0,0,0,0,0,0,-0.8902,-0.8896,-0.8846,-0.887,-0.8864,-0.8858,-0.8844,-0.8843,-0.8834,-0.8826,-0.8825,-0.8836,-0.8817,-0.8812,-0.878,-0.8759,-0.8797,-0.8795,-0.8695,-0.8693,-0.8691,-0.8664,0,0,0,0,0,0,-0.8904,-0.8896,-0.8882,-0.8869,-0.8862,-0.8818,-0.8842,-0.8842,-0.883,-0.8832,-0.8818,-0.8817,-0.8817,-0.8783,-0.8778,-0.8757,-0.8793,-0.8697,-0.8694,-0.8692,-0.8666,-0.8661,-0.8656,0,0,0,0,0,-0.8906,-0.8875,-0.8881,-0.8875,-0.8844,-0.8817,-0.8813,-0.8814,-0.8829,-0.8813,-0.8808,-0.8817,-0.8763,-0.878,-0.8774,-0.8752,-0.8698,-0.8695,-0.8692,-0.8668,-0.8662,-0.8656,0,0,0,0,0,0,-0.8886,-0.8874,-0.888,-0.8844,-0.8831,-0.882,-0.8801,-0.8808,-0.8791,-0.8793,-0.8796,-0.8792,-0.8759,-0.8752,-0.8772,-0.8712,-0.8733,-0.8728,-0.8717,-0.8711,-0.8706,-0.8707,-0.8791,0,0,0,0,0,-0.8877,-0.8857,-0.8847,-0.8817,-0.881,-0.8806,-0.8795,-0.8797,-0.8784,-0.8779,-0.8771,-0.8758,-0.8738,-0.8724,-0.8705,-0.8666,-0.8662,-0.8648,-0.8643,-0.8639,-0.8634,-0.8611,-0.8604,-0.868,-0.868,-0.868,0,0,-0.8858,-0.885,-0.8837,-0.8812,-0.8803,-0.8781,-0.8802,-0.8778,-0.8762,-0.8775,-0.8744,-0.8738,-0.8723,-0.8687,-0.8671,-0.8681,-0.8612,-0.8635,-0.8631,-0.8629,-0.8607,-0.86,-0.8593,-0.8678,-0.8678,-0.8678,0,0,-0.8813,-0.8805,-0.8778,-0.8768,-0.8753,-0.8751,-0.8745,-0.8732,-0.8728,-0.8697,-0.8706,-0.8687,-0.8653,-0.8641,-0.8631,-0.8581,-0.8588,-0.8575,-0.8547,-0.8525,-0.8519,-0.8514,-0.8494,-0.8487,-0.8571,-0.8571,-0.8571,0,-0.8792,-0.876,-0.8763,-0.8738,-0.8726,-0.8738,-0.8709,-0.87,-0.8679,-0.8671,-0.8683,-0.8639,-0.863,-0.859,-0.8578,-0.857,-0.8561,-0.8576,-0.852,-0.8514,-0.8509,-0.8491,-0.8483,-0.8569,-0.8569,-0.8569,-0.8569,0,-0.8733,-0.8711,-0.869,-0.867,-0.8656,-0.863,-0.8628,-0.8614,-0.8618,-0.8614,-0.8582,-0.8571,-0.855,-0.8541,-0.8544,-0.8501,-0.8508,-0.852,-0.854,-0.85,-0.8483,-0.8476,-0.8566,-0.8567,-0.8568,-0.8568,0,0,-0.8673,-0.8655,-0.8647,-0.8637,-0.8622,-0.8604,-0.8578,-0.8557,-0.8544,-0.853,-0.8507,-0.8478,-0.8488,-0.8476,-0.8479,-0.8459,-0.8418,-0.8473,-0.8473,-0.8462,-0.8368,-0.8357,-0.8349,-0.8424,-0.8422,-0.8421,-0.8368,0,-0.8625,-0.8579,-0.8581,-0.8538,-0.8516,-0.8527,-0.8504,-0.8491,-0.8487,-0.8468,-0.8464,-0.8442,-0.8459,-0.8451,-0.8433,-0.8427,-0.8399,-0.8431,-0.8401,-0.84,-0.8402,-0.834,-0.8329,-0.828,-0.8362,-0.8361,-0.836,0,-0.8563,-0.8546,-0.85,-0.8487,-0.8478,-0.8457,-0.8438,-0.842,-0.8406,-0.8404,-0.8391,-0.8396,-0.8368,-0.8391,-0.8352,-0.8374,-0.8362,-0.8357,-0.8356,-0.8351,-0.8376,-0.8332,-0.8264,-0.8256,-0.8349,-0.835,-0.8351,0,-0.8521,-0.8487,-0.8455,-0.8447,-0.8431,-0.8416,-0.8409,-0.8396,-0.8383,-0.8366,-0.8357,-0.8337,-0.8326,-0.831,-0.8309,-0.8326,-0.827,-0.8293,-0.8266,-0.8266,-0.8252,-0.8253,-0.8179,-0.8248,-0.8248,-0.8248,-0.8248,0,-0.8466,-0.8437,-0.8436,-0.8416,-0.8383,-0.8386,-0.8354,-0.8348,-0.8337,-0.8315,-0.8324,-0.8304,-0.8305,-0.8284,-0.8284,-0.8251,-0.8246,-0.8243,-0.8243,-0.8241,-0.8241,-0.8232,-0.8234,-0.8246,-0.8247,-0.8247,-0.8247,0,-0.8412,-0.8411,-0.8376,-0.8364,-0.836,-0.8337,-0.8326,-0.8307,-0.8304,-0.8277,-0.8271,-0.8266,-0.8241,-0.824,-0.8212,-0.8212,-0.8171,-0.8176,-0.8175,-0.8175,-0.8148,-0.815,-0.8065,-0.8053,-0.8131,-0.813,-0.813,0,-0.8376,-0.8354,-0.834,-0.8326,-0.8318,-0.8296,-0.8282,-0.8284,-0.827,-0.8252,-0.8234,-0.8211,-0.8192,-0.8153,-0.8147,-0.8125,-0.8128,-0.81,-0.8125,-0.8123,-0.8125,-0.8125,-0.8122,-0.8094,-0.8093,-0.8093,-0.8092,0,-0.8312,-0.8312,-0.8292,-0.8272,-0.8256,-0.824,-0.8225,-0.8213,-0.8213,-0.8196,-0.8172,-0.8157,-0.8129,-0.8105,-0.8084,-0.8076,-0.8083,-0.8085,-0.8077,-0.8073,-0.8073,-0.8071,-0.816,-0.8086,-0.8087,-0.8087,-0.8087,-0.8088,-0.8264,-0.8245,-0.8231,-0.8209,-0.8198,-0.8184,-0.8164,-0.8159,-0.8139,-0.8115,-0.8118,-0.809,-0.8076,-0.8048,-0.8039,-0.8017,-0.8026,-0.8016,-0.8012,-0.8009,-0.8005,-0.8079,-0.8013,-0.8013,-0.8013,-0.8014,-0.8014,0,-0.8199,-0.819,-0.817,-0.8149,-0.8131,-0.814,-0.8124,-0.8108,-0.8084,-0.807,-0.8051,-0.8022,-0.7999,-0.7991,-0.7968,-0.7952,-0.7955,-0.7946,-0.7946,-0.7944,-0.7999,-0.8007,-0.7944,-0.7944,-0.7944,-0.7944,-0.7944,-0.7944,-0.8162,-0.8128,-0.8127,-0.8088,-0.808,-0.8053,-0.8042,-0.8029,-0.8018,-0.7985,-0.7966,-0.7961,-0.7949,-0.7926,-0.7905,-0.7903,-0.7893,-0.7882,-0.7881,-0.7933,-0.794,-0.7947,-0.7954,-0.7881,-0.7881,-0.7827,-0.7827,-0.7827]}]]